EST,Max TemperatureF,Mean TemperatureF,Min TemperatureF,Max Dew PointF,MeanDew PointF,Min DewpointF,Max Humidity, Mean Humidity, Min Humidity, Max Sea Level PressureIn, Mean Sea Level PressureIn, Min Sea Level PressureIn, Max VisibilityMiles, Mean VisibilityMiles, Min VisibilityMiles, Max Wind SpeedMPH, Mean Wind SpeedMPH, Max Gust SpeedMPH,PrecipitationIn, CloudCover, Events, WindDirDegrees
2013-2-1,45,38,28,29,13,1,62,38,18,30.36,30.22,30.04,10,10,6,23,11,30,0.00,0,,264
2013-2-2,46,35,24,39,23,8,100,63,23,30.38,30.23,30.08,10,10,7,18,5,28,0.11,4,Rain,238
2013-2-3,54,44,35,37,30,25,93,62,34,30.06,30.01,29.92,10,10,10,18,11,28,0.00,0,,274
2013-2-4,48,38,28,30,27,23,92,63,41,30.15,30.07,30.03,10,10,10,8,3,,0.00,0,,210
2013-2-5,61,46,30,46,38,28,96,75,51,30.02,29.99,29.94,10,10,3,16,5,24,0.00,2,,241
2013-2-6,66,50,34,43,37,25,100,82,21,30.17,30.08,30.01,10,4,0,9,1,,0.00,0,Fog,260
2013-2-7,48,45,42,43,36,26,100,74,42,30.19,30.10,29.97,10,8,4,16,9,25,0.39,6,Rain,49
2013-2-8,60,50,37,46,40,27,100,73,45,30.13,29.98,29.92,10,10,10,15,6,,0.00,4,,275
2013-2-9,61,44,28,33,27,20,92,57,21,30.31,30.25,30.12,10,10,10,6,2,,0.00,0,,309
2013-2-10,59,49,39,48,37,25,100,68,35,30.40,30.27,30.16,10,8,5,12,6,,0.71,4,Rain,80
2013-2-11,55,52,48,55,52,48,100,98,93,30.12,30.07,30.02,10,7,0,15,5,17,0.14,6,Fog-Rain,243
2013-2-12,57,50,44,48,41,32,96,74,40,30.10,30.01,29.88,10,10,5,12,3,,0.21,3,Rain,59
2013-2-13,52,46,39,47,43,35,100,92,69,29.90,29.79,29.72,10,6,2,17,6,30,0.05,6,Rain,324
2013-2-14,52,40,28,36,33,28,100,75,49,30.08,30.01,29.91,10,10,7,8,3,,0.00,0,,198
2013-2-15,62,46,30,39,33,30,100,63,30,30.11,30.03,29.95,10,10,7,14,3,16,0.00,1,,266
2013-2-16,46,38,28,36,28,14,100,66,37,30.08,29.95,29.84,10,10,9,22,7,33,0.01,5,Rain,334
2013-2-17,46,35,24,17,10,4,71,38,18,30.28,30.19,30.09,10,10,10,17,8,23,0.00,0,,270
2013-2-18,57,41,25,26,21,17,81,49,24,30.38,30.30,30.21,10,10,10,14,3,18,0.00,0,,188
2013-2-19,54,46,37,45,35,15,100,77,30,30.18,30.05,29.94,10,8,2,21,6,30,0.21,6,Rain,223
2013-2-20,55,41,27,23,16,8,75,38,17,30.14,30.09,30.06,10,10,10,12,6,,0.00,0,,253
2013-2-21,62,47,32,32,20,14,66,37,20,30.22,30.12,30.04,10,10,10,13,5,,0.00,1,Rain,66
2013-2-22,48,44,39,40,39,35,100,95,61,30.23,30.17,30.11,10,5,2,14,8,21,0.57,8,Rain,54
2013-2-23,46,42,39,45,42,39,100,98,93,30.11,29.95,29.86,10,6,0,13,4,,0.39,8,Fog-Rain,53
2013-2-24,66,52,39,46,40,27,100,76,26,29.99,29.93,29.87,10,5,0,9,4,,0.00,1,Fog,247
2013-2-25,48,42,37,37,29,25,100,59,44,30.12,30.03,29.97,10,9,2,18,12,30,0.08,5,Rain,66
2013-2-26,44,39,34,43,38,33,100,96,80,29.97,29.71,29.61,10,6,0,22,12,34,1.08,6,Fog-Rain,75
2013-2-27,57,50,42,37,34,31,76,59,40,29.85,29.79,29.73,10,10,10,18,14,25,0.00,2,,251
2013-2-28,48,42,35,34,27,24,67,55,43,29.93,29.85,29.78,10,10,10,21,14,26,0.00,2,,274